Previsão horária em Alihanmahi

Hoje, 27 Novembro, Sexta-feira

Tempo Temperatura Precipitação Vento Pressão Humidade
00:00 -6°C° 0 mm 0 m/s 628 mmHg 86%
01:00 -6°C° 0.1 mm 0 m/s 628 mmHg 85%
02:00 -6°C° 0.1 mm 1 m/s 629 mmHg 85%
03:00 -7°C° 0 mm 1 m/s 629 mmHg 85%
04:00 -7°C° 0 mm 1 m/s 629 mmHg 83%
05:00 -7°C° 0 mm 1 m/s 629 mmHg 80%
06:00 -7°C° 0 mm 1 m/s 630 mmHg 77%
07:00 -7°C° 0 mm 1 m/s 630 mmHg 73%
08:00 -6°C° 0 mm 1 m/s 631 mmHg 69%
09:00 -5°C° 0 mm 0 m/s 632 mmHg 64%
10:00 -4°C° 0 mm 0 m/s 633 mmHg 61%
11:00 -3°C° 0 mm 0 m/s 633 mmHg 58%
12:00 -2°C° 0 mm 0 m/s 633 mmHg 55%
13:00 -2°C° 0 mm 0 m/s 633 mmHg 57%
14:00 -2°C° 0 mm 0 m/s 633 mmHg 60%
15:00 -2°C° 0 mm 0 m/s 633 mmHg 62%
16:00 -1°C° 0 mm 1 m/s 633 mmHg 59%
17:00 -2°C° 0 mm 1 m/s 633 mmHg 56%
18:00 -3°C° 0 mm 1 m/s 633 mmHg 53%
19:00 -3°C° 0 mm 1 m/s 633 mmHg 49%
20:00 -2°C° 0 mm 1 m/s 634 mmHg 44%
21:00 -4°C° 0 mm 2 m/s 634 mmHg 40%
22:00 -4°C° 0 mm 2 m/s 634 mmHg 38%
23:00 -4°C° 0 mm 2 m/s 634 mmHg 36%

Amanhã, 28 Novembro, Sábado

Tempo Temperatura Precipitação Vento Pressão Humidade
00:00 -4°C° 0 mm 2 m/s 634 mmHg 34%
01:00 -4°C° 0 mm 2 m/s 633 mmHg 34%
02:00 -4°C° 0 mm 2 m/s 633 mmHg 33%
03:00 -4°C° 0 mm 2 m/s 633 mmHg 33%
04:00 -3°C° 0 mm 2 m/s 633 mmHg 32%
05:00 -3°C° 0 mm 2 m/s 633 mmHg 32%
06:00 -3°C° 0 mm 2 m/s 632 mmHg 32%
07:00 -2°C° 0 mm 2 m/s 633 mmHg 33%
08:00 -1°C° 0 mm 2 m/s 633 mmHg 34%
09:00 +2°C° 0 mm 2 m/s 634 mmHg 34%
10:00 +4°C° 0 mm 1 m/s 634 mmHg 36%
11:00 +5°C° 0 mm 1 m/s 634 mmHg 38%
12:00 +7°C° 0 mm 1 m/s 634 mmHg 39%
13:00 +6°C° 0 mm 1 m/s 634 mmHg 39%
14:00 +4°C° 0 mm 0 m/s 633 mmHg 39%
15:00 +4°C° 0 mm 0 m/s 633 mmHg 40%
16:00 +4°C° 0 mm 1 m/s 632 mmHg 38%
17:00 +2°C° 0 mm 1 m/s 632 mmHg 36%
18:00 -1°C° 0 mm 2 m/s 632 mmHg 34%
19:00 -1°C° 0 mm 2 m/s 632 mmHg 33%
20:00 -1°C° 0 mm 2 m/s 632 mmHg 33%
21:00 -1°C° 0 mm 2 m/s 632 mmHg 32%
22:00 -2°C° 0 mm 2 m/s 632 mmHg 32%
23:00 -2°C° 0 mm 2 m/s 632 mmHg 32%

Depois de amanhã, 29 Novembro, Domingo

Tempo Temperatura Precipitação Vento Pressão Humidade
00:00 -2°C° 0 mm 2 m/s 632 mmHg 31%
01:00 -2°C° 0 mm 2 m/s 631 mmHg 32%
02:00 -2°C° 0 mm 2 m/s 631 mmHg 33%
03:00 -2°C° 0 mm 2 m/s 631 mmHg 33%
04:00 -2°C° 0 mm 2 m/s 631 mmHg 35%
05:00 -2°C° 0 mm 2 m/s 631 mmHg 37%
06:00 0°C° 0 mm 1 m/s 631 mmHg 39%
07:00 0°C° 0 mm 1 m/s 632 mmHg 41%
08:00 +1°C° 0 mm 1 m/s 632 mmHg 43%
09:00 +2°C° 0 mm 1 m/s 633 mmHg 45%
10:00 +3°C° 0 mm 1 m/s 633 mmHg 48%
11:00 +4°C° 0 mm 1 m/s 633 mmHg 51%
12:00 +4°C° 0 mm 1 m/s 632 mmHg 54%
13:00 +4°C° 0 mm 1 m/s 632 mmHg 59%
14:00 +3°C° 0 mm 1 m/s 632 mmHg 63%
15:00 +3°C° 0 mm 1 m/s 632 mmHg 68%
16:00 +2°C° 0 mm 1 m/s 632 mmHg 71%
17:00 +2°C° 0 mm 1 m/s 632 mmHg 74%
18:00 +1°C° 0 mm 1 m/s 631 mmHg 76%
19:00 -1°C° 0 mm 2 m/s 632 mmHg 78%
20:00 -1°C° 0 mm 2 m/s 632 mmHg 79%
21:00 -1°C° 0 mm 2 m/s 632 mmHg 81%
22:00 -1°C° 0 mm 2 m/s 632 mmHg 83%
23:00 -1°C° 0 mm 2 m/s 631 mmHg 85%

30 Novembro, Segunda-feira

Tempo Temperatura Precipitação Vento Pressão Humidade
00:00 -1°C° 0 mm 2 m/s 631 mmHg 87%
01:00 -1°C° 0.1 mm 2 m/s 631 mmHg 89%
02:00 -1°C° 0.1 mm 2 m/s 631 mmHg 92%
03:00 -2°C° 0.1 mm 2 m/s 631 mmHg 95%
04:00 -2°C° 0.2 mm 2 m/s 631 mmHg 96%
05:00 -2°C° 0.2 mm 2 m/s 631 mmHg 96%
06:00 -2°C° 0.2 mm 2 m/s 631 mmHg 97%
07:00 -2°C° 0.5 mm 2 m/s 631 mmHg 97%
08:00 0°C° 0.5 mm 1 m/s 631 mmHg 96%
09:00 0°C° 0.5 mm 1 m/s 631 mmHg 95%
10:00 -2°C° 0.1 mm 2 m/s 631 mmHg 94%
11:00 -2°C° 0.1 mm 2 m/s 631 mmHg 92%
12:00 -2°C° 0.1 mm 2 m/s 631 mmHg 90%
13:00 -2°C° 0 mm 2 m/s 631 mmHg 90%
14:00 -2°C° 0 mm 2 m/s 630 mmHg 91%
15:00 -2°C° 0 mm 2 m/s 630 mmHg 91%
16:00 -3°C° 0 mm 2 m/s 630 mmHg 92%
17:00 -3°C° 0 mm 2 m/s 630 mmHg 93%
18:00 -4°C° 0 mm 2 m/s 630 mmHg 94%
19:00 -2°C° 0.1 mm 1 m/s 630 mmHg 94%
20:00 -2°C° 0.1 mm 1 m/s 630 mmHg 95%
21:00 -2°C° 0.1 mm 1 m/s 630 mmHg 95%
22:00 -2°C° 0.1 mm 1 m/s 630 mmHg 94%
23:00 -2°C° 0.1 mm 1 m/s 630 mmHg 94%

1 Dezembro, Terça-feira

Tempo Temperatura Precipitação Vento Pressão Humidade
00:00 -3°C° 0.1 mm 1 m/s 630 mmHg 94%
01:00 -3°C° 0.1 mm 1 m/s 629 mmHg 93%
02:00 -3°C° 0.1 mm 1 m/s 629 mmHg 93%
03:00 -3°C° 0.1 mm 1 m/s 629 mmHg 92%
04:00 -3°C° 0 mm 1 m/s 629 mmHg 91%
05:00 -3°C° 0 mm 1 m/s 629 mmHg 90%
06:00 -3°C° 0 mm 1 m/s 629 mmHg 88%
07:00 -3°C° 0 mm 1 m/s 629 mmHg 85%
08:00 -2°C° 0 mm 1 m/s 629 mmHg 82%
09:00 -2°C° 0 mm 1 m/s 630 mmHg 78%
10:00 -1°C° 0 mm 1 m/s 630 mmHg 78%
11:00 -1°C° 0 mm 1 m/s 630 mmHg 77%
12:00 0°C° 0 mm 1 m/s 630 mmHg 77%
13:00 0°C° 0 mm 1 m/s 630 mmHg 79%
14:00 0°C° 0 mm 1 m/s 630 mmHg 82%
15:00 0°C° 0 mm 1 m/s 629 mmHg 84%
16:00 -1°C° 0 mm 1 m/s 629 mmHg 85%
17:00 -2°C° 0 mm 1 m/s 629 mmHg 86%
18:00 -3°C° 0 mm 1 m/s 629 mmHg 88%
19:00 -3°C° 0 mm 1 m/s 629 mmHg 86%
20:00 -3°C° 0 mm 1 m/s 629 mmHg 85%
21:00 -3°C° 0 mm 1 m/s 630 mmHg 84%
22:00 -3°C° 0 mm 1 m/s 629 mmHg 81%
23:00 -3°C° 0 mm 1 m/s 629 mmHg 79%

2 Dezembro, Quarta-feira

Tempo Temperatura Precipitação Vento Pressão Humidade
00:00 -4°C° 0 mm 1 m/s 629 mmHg 77%
01:00 -4°C° 0 mm 1 m/s 629 mmHg 74%
02:00 -3°C° 0 mm 1 m/s 629 mmHg 71%
03:00 -3°C° 0 mm 1 m/s 629 mmHg 68%
04:00 -3°C° 0 mm 1 m/s 629 mmHg 68%
05:00 -3°C° 0 mm 1 m/s 629 mmHg 67%
06:00 -3°C° 0 mm 1 m/s 629 mmHg 67%
07:00 -3°C° 0 mm 1 m/s 630 mmHg 67%
08:00 -2°C° 0 mm 1 m/s 630 mmHg 67%
09:00 -1°C° 0 mm 1 m/s 631 mmHg 67%
10:00 0°C° 0 mm 1 m/s 631 mmHg 67%
11:00 0°C° 0 mm 1 m/s 631 mmHg 67%
12:00 +1°C° 0 mm 1 m/s 631 mmHg 67%
13:00 +1°C° 0 mm 1 m/s 631 mmHg 71%
14:00 +1°C° 0 mm 1 m/s 631 mmHg 76%
15:00 0°C° 0 mm 1 m/s 630 mmHg 80%
16:00 0°C° 0 mm 1 m/s 630 mmHg 83%
17:00 -1°C° 0 mm 1 m/s 630 mmHg 86%
18:00 -2°C° 0 mm 1 m/s 630 mmHg 88%
19:00 -2°C° 0 mm 1 m/s 630 mmHg 88%
20:00 -2°C° 0 mm 1 m/s 630 mmHg 87%
21:00 -3°C° 0 mm 1 m/s 630 mmHg 86%
22:00 -3°C° 0 mm 1 m/s 630 mmHg 85%
23:00 -3°C° 0 mm 1 m/s 630 mmHg 84%
Mostrar mais